Terminal Aerodrome Forecast
Issued by NWS Shreveport, LA

Home | Current Version | Previous Version | Text Only | Print | Product List | Glossary On
Versions: 1 2 3 4 5 6 7 8 9 10 11 12
102
FTUS44 KSHV 231140
TAFTYR
TAF
KTYR 231140Z 2312/2412 18006KT P6SM FEW250
     FM231500 23005KT P6SM FEW040 SCT250
     FM231900 19008KT P6SM BKN060 BKN250
     FM240200 16005KT P6SM SCT250=

USA.gov is the U.S. government's official web portal to all federal, state and local government web resources and services.